Location: Remedello Sotto
(45.2500°N, 10.3667°E)
Time: 04:41:06
(UTC+00:00)

Cosmos 2219 Rocket - Pass Details

Date: 03 February 2023
Orbit: 826 x 848 km, 71.0° (Epoch: 29 March)

Event Time Altitude Azimuth Distance (km) Brightness Sun altitude
Rises 19:47:16 0° 232° (SW) 3,355 5.8 -35.1°
Reaches altitude 10° 19:49:55 10° 241° (WSW) 2,427 5.1 -35.6°
Enters shadow 19:54:31 34° 297° (WNW) 1,347 3.6 -36.4°
